DM3FAM-13 Weather Reports


Display with metric or nautical units.
time (UTC)temp
F
wind
direction
speed
MPH
gust
MPH
rain 1hr
in
rain 24hr
in
rain mn
in
humidity
%
barometer
mb
20260506154031 51 0.0 0.0 0.03 0.27 0.25 91 1008.8
20260506153030 50 28 0.0 1.0 0.03 0.26 0.24 89 1008.7
20260506152030 51 28 1.0 2.0 0.02 0.25 0.23 89 1008.7
20260506151030 51 41 0.0 1.0 0.03 0.25 0.23 88 1008.7
20260506150031 51 53 0.0 2.0 0.04 0.25 0.22 89 1008.6
20260506145031 51 29 1.0 4.0 0.05 0.27 0.22 88 1008.6
20260506144031 51 35 0.0 2.0 0.06 0.32 0.22 88 1008.6
20260506143031 52 36 0.0 4.0 0.06 0.32 0.21 86 1008.5
20260506142030 52 21 1.0 4.0 0.08 0.32 0.21 86 1008.8
20260506141030 52 176 2.0 3.0 0.08 0.30 0.19 87 1008.6
20260506140030 53 169 1.0 4.0 0.09 0.29 0.18 86 1008.4
20260506135030 53 166 1.0 4.0 0.09 0.28 0.17 88 1008.4
20260506134030 53 0.0 1.0 0.09 0.27 0.16 89 1008.4
20260506133030 52 197 1.0 4.0 0.07 0.25 0.14 88 1008.4
20260506132030 52 169 2.0 6.0 0.06 0.24 0.13 88 1008.4
20260506131030 53 207 2.0 7.0 0.04 0.21 0.10 88 1008.1
20260506130031 54 168 1.0 2.0 0.04 0.20 0.09 88 1008.0
20260506125031 54 253 0.0 2.0 0.04 0.19 0.08 87 1007.8
20260506124030 55 180 1.0 3.0 0.04 0.18 0.07 88 1007.7
20260506123030 55 178 1.0 6.0 0.05 0.18 0.07 88 1007.7
20260506122030 55 192 2.0 4.0 0.05 0.18 0.07 87 1007.5
20260506121030 55 185 2.0 4.0 0.05 0.17 0.06 85 1007.3
20260506120031 55 98 0.0 1.0 0.04 0.16 0.05 89 1007.3
20260506115030 55 359 0.0 1.0 0.03 0.15 0.04 89 1007.2
20260506114031 55 224 0.0 1.0 0.03 0.14 0.03 88 1007.2
20260506113030 55 0.0 2.0 0.02 0.13 0.02 86 1007.0
20260506112031 56 0.0 0.0 0.02 0.13 0.02 82 1007.1
20260506111030 56 196 1.0 2.0 0.01 0.12 0.01 79 1007.1
20260506110030 57 213 1.0 3.0 0.01 0.12 0.01 78 1007.1
20260506105030 57 183 1.0 3.0 0.01 0.12 0.01 76 1007.1
20260506104030 57 172 1.0 3.0 0.00 0.11 0.00 75 1007.0
20260506103030 57 192 1.0 3.0 0.00 0.11 0.00 76 1007.0
20260506102030 57 189 0.0 3.0 0.00 0.11 0.00 76 1007.0
20260506101030 58 200 2.0 3.0 0.00 0.11 0.00 75 1007.0
20260506100031 58 41 1.0 4.0 0.00 0.11 0.00 75 1006.9
20260506095030 58 79 1.0 2.0 0.00 0.11 0.00 76 1006.8
20260506094030 58 204 0.0 3.0 0.00 0.11 0.00 77 1006.9
20260506093030 58 105 0.0 2.0 0.00 0.11 0.00 76 1006.9
20260506092030 59 46 1.0 4.0 0.00 0.11 0.00 75 1006.8
20260506091030 58 185 2.0 4.0 0.00 0.11 0.00 75 1006.7
20260506090031 59 207 1.0 6.0 0.00 0.11 0.00 75 1006.6
20260506085030 59 175 2.0 6.0 0.00 0.11 0.00 75 1006.5
20260506084030 59 190 2.0 3.0 0.00 0.11 0.00 76 1006.4
20260506083030 58 197 1.0 3.0 0.00 0.11 0.00 74 1006.4
20260506082030 58 221 1.0 3.0 0.00 0.11 0.00 74 1006.4
20260506081030 58 215 1.0 1.0 0.00 0.11 0.00 75 1006.5
20260506073030 55 0.0 1.0 0.00 0.11 0.00 89 1006.7
20260506072029 54 191 0.0 1.0 0.00 0.11 0.00 90 1006.7
20260506071029 53 208 0.0 1.0 0.00 0.11 0.00 91 1006.7
20260506062030 50 50 1.0 1.0 0.00 0.11 0.00 97 1006.7
20260506061030 50 0.0 2.0 0.00 0.11 0.00 97 1006.7
20260506051030 48 29 1.0 2.0 0.00 0.11 0.00 97 1007.0
20260506045031 48 36 1.0 2.0 0.00 0.11 0.00 97 1007.1
20260506044031 48 37 1.0 3.0 0.00 0.11 0.00 97 1007.0
20260506043031 48 35 1.0 3.0 0.00 0.11 0.00 97 1007.0
20260506042030 48 0.0 0.0 0.00 0.11 0.00 97 1007.1
20260506041031 49 0.0 1.0 0.00 0.11 0.00 97 1007.3
20260506040030 49 39 0.0 1.0 0.00 0.11 0.00 97 1007.3
20260506035030 49 0.0 0.0 0.00 0.11 0.00 98 1007.3
20260506034030 49 36 0.0 2.0 0.00 0.11 0.00 97 1007.3
20260506033030 49 39 1.0 2.0 0.00 0.11 0.00 97 1007.4
20260506032030 50 36 1.0 2.0 0.00 0.11 0.00 97 1007.4
20260506031030 50 27 1.0 2.0 0.00 0.11 0.00 98 1007.6
20260506030031 50 0.0 0.0 0.00 0.11 0.00 98 1007.7
20260506025031 50 34 1.0 2.0 0.00 0.11 0.00 98 1007.8
20260506024030 50 0.0 0.0 0.00 0.11 0.00 98 1008.0
20260506021030 49 34 0.0 2.0 0.00 0.11 0.00 98 1008.1
20260506020031 49 0.0 1.0 0.00 0.11 0.00 98 1008.2
20260506015030 48 42 0.0 2.0 0.00 0.11 0.00 98 1008.5
20260506014031 48 42 0.0 1.0 0.00 0.11 0.00 98 1008.4
20260506013030 47 0.0 1.0 0.00 0.11 0.00 98 1008.5
20260506012030 47 36 1.0 2.0 0.00 0.11 0.00 98 1008.8
20260506011030 47 35 0.0 2.0 0.00 0.11 0.00 98 1008.7
20260506010031 47 34 0.0 2.0 0.00 0.11 0.00 98 1008.6
20260506005030 47 31 1.0 3.0 0.00 0.11 0.00 98 1008.5
20260506004030 47 26 0.0 2.0 0.00 0.11 0.00 98 1008.6
20260506003030 47 32 1.0 2.0 0.00 0.11 0.00 98 1008.8
20260506002030 47 0.0 1.0 0.00 0.11 0.00 98 1008.9
20260506001029 47 53 0.0 1.0 0.00 0.11 0.00 98 1009.0
20260506000030 47 32 0.0 2.0 0.00 0.11 0.00 98 1009.1
20260505235030 47 39 1.0 3.0 0.00 0.11 0.00 98 1009.1
20260505234030 47 34 0.0 2.0 0.00 0.11 0.00 98 1009.2
20260505233030 46 41 0.0 1.0 0.00 0.11 0.00 98 1009.3
20260505232030 47 36 0.0 2.0 0.00 0.11 0.00 98 1009.3
20260505231030 47 42 0.0 2.0 0.00 0.11 0.00 98 1009.3
20260505230031 47 40 0.0 2.0 0.00 0.11 0.00 98 1009.4
20260505225031 47 38 1.0 2.0 0.00 0.11 0.00 98 1009.5
20260505224030 47 37 1.0 3.0 0.00 0.11 0.00 98 1009.5
20260505223031 47 40 0.0 2.0 0.00 0.11 0.00 97 1009.5
20260505222031 48 46 0.0 1.0 0.00 0.11 0.00 97 1009.5
20260505221030 48 40 0.0 2.0 0.00 0.11 0.00 97 1009.6
20260505220030 48 34 1.0 2.0 0.00 0.11 0.11 97 1009.5
20260505215030 49 37 1.0 3.0 0.00 0.11 0.11 97 1009.5
20260505214030 48 39 1.0 2.0 0.00 0.11 0.11 97 1009.7
20260505213030 49 37 1.0 2.0 0.00 0.11 0.11 97 1009.5
20260505212029 49 35 1.0 2.0 0.00 0.11 0.11 96 1009.6
20260505211029 50 43 0.0 2.0 0.00 0.11 0.11 97 1009.6
20260505210030 50 43 0.0 2.0 0.00 0.11 0.11 97 1009.6
20260505205030 50 40 1.0 2.0 0.00 0.11 0.11 96 1009.7
20260505204031 52 0.0 1.0 0.00 0.11 0.11 97 1009.7
20260505203030 52 29 1.0 2.0 0.00 0.11 0.11 97 1009.6
20260505202030 51 24 0.0 1.0 0.00 0.11 0.11 97 1009.5
20260505201030 51 33 0.0 1.0 0.00 0.11 0.11 96 1009.3
20260505200030 51 35 1.0 2.0 0.00 0.11 0.11 96 1009.2
20260505195030 52 37 1.0 2.0 0.00 0.11 0.11 96 1009.1
20260505194030 52 23 0.0 1.0 0.00 0.11 0.11 95 1009.0
20260505193030 52 27 1.0 2.0 0.00 0.11 0.11 95 1009.1
20260505192030 53 37 0.0 1.0 0.02 0.11 0.11 95 1009.0
20260505191030 54 28 0.0 2.0 0.02 0.11 0.11 95 1008.9
20260505190031 54 39 1.0 3.0 0.02 0.11 0.11 94 1008.9
20260505185031 55 0.0 0.0 0.02 0.11 0.11 93 1008.7
20260505184031 55 38 0.0 2.0 0.02 0.11 0.11 92 1008.7
20260505183031 56 57 0.0 2.0 0.02 0.11 0.11 91 1008.8
20260505182030 56 22 0.0 3.0 0.00 0.09 0.09 91 1008.8
20260505181031 56 0.0 0.0 0.00 0.09 0.09 91 1008.7
20260505180030 56 30 0.0 2.0 0.00 0.09 0.09 91 1008.4
20260505175030 57 31 2.0 4.0 0.00 0.10 0.09 90 1008.5
20260505174030 57 40 0.0 2.0 0.00 0.10 0.09 90 1008.3
20260505173030 57 13 1.0 3.0 0.00 0.10 0.09 90 1008.4
20260505172030 58 33 1.0 3.0 0.00 0.11 0.09 90 1008.3
20260505171030 58 30 2.0 4.0 0.00 0.11 0.09 90 1008.2
20260505170030 58 0.0 1.0 0.00 0.11 0.09 90 1008.4
20260505165030 57 25 1.0 3.0 0.00 0.11 0.09 88 1008.3
20260505164031 58 27 1.0 1.0 0.00 0.11 0.09 89 1008.3
20260505163030 58 0.0 0.0 0.00 0.11 0.09 91 1008.2
20260505162030 58 0.0 1.0 0.00 0.11 0.09 90 1008.4
20260505161030 57 0.0 0.0 0.00 0.11 0.09 92 1008.4